STARLINK-1572, 46060

Orbit data source: Space-Track

STARLINK-1572, 46060 is a payload satellite owned by SpaceX/Seattle (US) in LEO that was launched on Fri, 07 Aug 2020 UTC via an FALCON 9 launch vehicle from the Air Force Eastern Test Range (AFETR). Payload-class satellites include a variety of spacecraft equipped with specific instruments for various scientific and technological missions. These include communications satellites like Starlink; space stations such as the ISS; scientific satellites like the Hubble; Earth observation satellites from companies like Planet Labs, Umbra, and HawkEye 360; GPS; miniature CubeSats for education and research; and military/defense satellites.

Loading next visibility...
Identifier
46060, 2020-055AK
Orbit
LEO
Country
Flag of USUS
Related business
Manufacturer
SpaceX/Seattle
Mission
Operational Commercial Communications
Bus & Motor
STARLINK, Unknown motor
Mass
260 kg wet, ~248 kg dry
Launch date (UTC)
2020-08-07 (6 years ago)
Launch vehicle
FALCON 9
Launch site
Air Force Eastern Test Range (AFETR)
Object type
Payload
Rocket body
Debris
Shape & HBR
Box + 1 Pan, 10.1 m
Radar Cross Section
13.562 m², Large (>1 m²)

Expand to show TLE details & history
Last TLE update: 6 hours ago

TLE from 6 hours ago
0 STARLINK-1572
1 46060U 20055AK  26263.59258353  .00000820  00000-0  38191-4 0  9993
2 46060  53.1615 288.4256 0001383  64.0969 296.0175 15.31698140338881
Epoch: 2026-09-20T14:13Z
TLE epoch observation values (Epoch: 2026-09-20T14:13:19.216Z)
Latitude
0.00001°
Longitude
75.61099°
Altitude
471.231 km
Speed
7.632 km/s
True Right ascension
19h 13m 42s
True Declination
0° 00' 00"
Sunlit
Object was in daylight at epoch
Visualization orbit readout
Latitude
Unknown
Longitude
Unknown
Altitude
Unknown
Speed
Unknown
Apparent Right ascension
Unknown
Apparent Declination
Unknown
Sunlit
N/A
Visualization observer readout
Local Sidereal Time
13:02:01
Azimuth
Unknown
Elevation
Unknown
Doppler factor
Unknown
Orbital elements
Apogee altitude
471.949 km
Perigee altitude
470.055 km
Semi-major axis
6,849.139 km
Eccentricity
0.00014
Inclination
53.1615°
RAAN
288.4256°
Arg. of periapsis
64.0969°
True anomaly
296.00326°
Mean anomaly
296.0175°
Eccentric anomaly
296.01038°
Mean motion
3.82903 °/min
Orbital period
94.02 mins
BSTAR
0.000038191
Loading maneuver chart data...
Computing Atmospheric mass density...

Documentation

Showing up to 5 results
|